{"data":{"norad_id":52665,"intl_designator":"2022-053K","name":"STARLINK-4064","alt_names":[],"object_type":"PAYLOAD","status":"ACTIVE","operator":null,"country":"US","launch_date":"2022-05-18","launch_site_code":"AFETR","launch_vehicle":null,"mission":null,"orbit_class":"UNKNOWN","rcs_meters":null,"size_class":null,"mass_kg":null,"dimensions":null,"purposes":["comms"],"wikipedia_slug":null,"has_3d_model":false,"image_url":null,"decayed_at":null,"tle_current":{"epoch":"2026-05-25T00:52:41.345760Z","epoch_age_seconds":78798,"freshness":"FRESH","line1":"1 52665U 22053K   26145.03658965 -.00000951  00000+0 -41665-4 0  9998","line2":"2 52665  53.2130 171.3857 0001281  69.2051 290.9078 15.08843086222573","mean_motion":15.08843086,"eccentricity":0.0001281,"inclination_deg":53.213,"raan_deg":171.3857,"arg_perigee_deg":69.2051,"mean_anomaly_deg":290.9078,"bstar":-4.1665e-5,"rev_number":22257,"period_min":95.437359481661,"perigee_km":538.84777704325,"apogee_km":540.62013558226,"semimajor_km":6917.8709563128,"source":"CELESTRAK","updated_at":"2026-05-25T13:38:17.231065Z"}}}